Weather in Krasnomayskiy

Russia / Tver Oblast     57°37′04″N   34°24′46″E
temp.,
°C
wind,
m/s
gust,
m/s
humid.,
%
clouds,
%
prec.,
mm/h
press.,
hPa
HPBL,
m
10 may, mon
mon1000:00+2wnw22732 0.0 102331
03:00+1wnw11745 0.0 102510
06:00+3ssw11686 0.0 102730
09:00+10s23466 0.0 1027485
12:00+14ssw243535 0.0 10271668
15:00+16ssw23335 0.0 10261668
18:00+16s234636 0.0 10261109
21:00+9s3569100 0.0 102873
11 may, tue
tue1100:00+7s237333 0.0 102949
03:00+6s2277100 0.0 102939
06:00+7s2273100 0.0 103058
09:00+13sse235395 0.0 1030393
12:00+17se344213 0.0 1029927
15:00+19ese34405 0.0 10281182
18:00+18ese35518 0.0 1027972
21:00+11ese27805 0.0 1028123
12 may, wed
wed1200:00+9ese27840 0.0 1028121
03:00+8ese22890 0.0 102826
06:00+9ese14880 0.0 1028119
09:00+16ese35703 0.0 1027550
12:00+21e46555 0.0 10251347
15:00+22e584613 0.1 10232112
18:00+19e5116723 0.7 10211192
21:00+15e5128797 3.2 1020871
13 may, thu
thu1300:00+13se6128816 0.1 1020994
03:00+8se39958 0.1 1022393
06:00+8ese279411 0.0 1022233
09:00+13e486782 0.0 1020632
12:00+17se5956100 0.0 10181694
15:00+16sse486271 0.1 10171422
18:00+16sse3769100 0.9 10171290
21:00+11sse248798 1.0 101873
14 may, fri
fri1400:00+9sse23945 0.0 101947
03:00+8se23960 0.0 101961
06:00+9se259177 0.0 1019146
09:00+15se4774100 0.0 1017505
12:00+19se475890 0.0 10161349
15:00+21se5954100 0.3 10142320
18:00+19ese4968100 0.3 1012687
21:00+16ese41392100 3.3 1011506